Voltar ao catálogo

USA 58

AtivoMilitarPO
NORAD 20562·PAYLOAD·🇺🇸 United States

Lançado Apr 11, 1990 de Vandenberg Space Force Base

Loading…

Próximas Passagens (próximas 24 horas)

TLE

AtualizadoSource: Space-Track

Época: Sep 14, 2026, 08:24 UTC

1 20562U 90031C   26257.35004130  .00000647  00000-0  87606-4 0  9994
2 20562  89.8532 261.7106 0061960 349.0088  10.9775 14.76541429126808

Acompanhe USA 58 em tempo real com AllMySat

Download on the App Store